Location: Asheville, NC
(35.6000°N, 82.5500°W)
Time: 13:45:31
(UTC-04:00)

CUTE 1.7 + AOD 2 - Pass Details

Date: 09 March 2018
Orbit: 594 x 613 km, 97.5° (Epoch: 18 June)

Event Time Altitude Azimuth Distance (km) Brightness Sun altitude
Rises 19:05:34 0° 185° (S) 2,812 ? -7.5°
Reaches altitude 10° 19:07:50 10° 194° (SSW) 1,916 ? -8.0°
Maximum altitude 19:11:42 37° 262° (W) 923 ? -8.8°
Drops below altitude 10° 19:15:36 10° 331° (NNW) 1,933 ? -9.6°
Sets 19:17:55 0° 339° (NNW) 2,842 ? -10.0°
